Year,Month,Day,Hour,Minute,Value (Times are PST for temperature in C)
2010,07,08,00,00,20.40
2010,07,08,00,01,20.40
2010,07,08,00,02,20.40
2010,07,08,00,03,20.30
2010,07,08,00,04,20.30
2010,07,08,00,05,20.30
2010,07,08,00,06,20.30
2010,07,08,00,07,20.30
2010,07,08,00,08,20.20
2010,07,08,00,09,20.20
2010,07,08,00,10,20.20
2010,07,08,00,11,20.20
2010,07,08,00,12,20.20
2010,07,08,00,13,20.20
2010,07,08,00,16,20.20
2010,07,08,00,17,20.20
2010,07,08,00,18,20.10
2010,07,08,00,19,20.10
2010,07,08,00,20,20.10
2010,07,08,00,21,20.10
2010,07,08,00,22,20.10
2010,07,08,00,23,20.10
2010,07,08,00,24,20.00
2010,07,08,00,25,19.90
2010,07,08,00,26,19.90
2010,07,08,00,27,19.90
2010,07,08,00,28,19.90
2010,07,08,00,29,19.90
2010,07,08,00,30,19.90
2010,07,08,00,31,19.90
2010,07,08,00,32,19.90
2010,07,08,00,33,19.90
2010,07,08,00,34,19.90
2010,07,08,00,35,19.90
2010,07,08,00,36,19.80
2010,07,08,00,37,19.80
2010,07,08,00,38,19.80
2010,07,08,00,39,19.80
2010,07,08,00,40,19.80
2010,07,08,00,41,19.80
2010,07,08,00,42,19.70
2010,07,08,00,43,19.70
2010,07,08,00,44,19.70
2010,07,08,00,45,19.70
2010,07,08,00,46,19.60
2010,07,08,00,47,19.60
2010,07,08,00,48,19.60
2010,07,08,00,49,19.60
2010,07,08,00,50,19.50
2010,07,08,00,51,19.50
2010,07,08,00,52,19.50
2010,07,08,00,53,19.50
2010,07,08,00,54,19.40
2010,07,08,00,55,19.40
2010,07,08,00,56,19.40
2010,07,08,00,57,19.40
2010,07,08,00,58,19.40
2010,07,08,00,59,19.30
2010,07,08,01,00,19.30
2010,07,08,01,01,19.30
2010,07,08,01,02,19.30
2010,07,08,01,03,19.30
2010,07,08,01,04,19.20
2010,07,08,01,05,19.20
2010,07,08,01,06,19.20
2010,07,08,01,07,19.10
2010,07,08,01,08,19.10
2010,07,08,01,09,19.10
2010,07,08,01,10,19.10
2010,07,08,01,11,19.10
2010,07,08,01,12,19.10
2010,07,08,01,13,19.00
2010,07,08,01,14,18.90
2010,07,08,01,15,18.90
2010,07,08,01,16,18.90
2010,07,08,01,17,18.90
2010,07,08,01,18,18.90
2010,07,08,01,19,18.90
2010,07,08,01,20,18.90
2010,07,08,01,21,18.90
2010,07,08,01,22,18.80
2010,07,08,01,23,18.80
2010,07,08,01,24,18.80
2010,07,08,01,25,18.70
2010,07,08,01,26,18.70
2010,07,08,01,27,18.70
2010,07,08,01,28,18.70
2010,07,08,01,29,18.70
2010,07,08,01,30,18.70
2010,07,08,01,31,18.60
2010,07,08,01,32,18.60
2010,07,08,01,33,18.60
2010,07,08,01,34,18.60
2010,07,08,01,35,18.60
2010,07,08,01,36,18.60
2010,07,08,01,37,18.50
2010,07,08,01,38,18.50
2010,07,08,01,39,18.50
2010,07,08,01,40,18.50
2010,07,08,01,41,18.50
2010,07,08,01,42,18.40
2010,07,08,01,43,18.40
2010,07,08,01,44,18.40
2010,07,08,01,45,18.40
2010,07,08,01,46,18.40
2010,07,08,01,47,18.40
2010,07,08,01,48,18.30
2010,07,08,01,49,18.30
2010,07,08,01,50,18.30
2010,07,08,01,51,18.30
2010,07,08,01,52,18.30
2010,07,08,01,53,18.20
2010,07,08,01,54,18.20
2010,07,08,01,55,18.20
2010,07,08,01,56,18.20
2010,07,08,01,57,18.20
2010,07,08,01,58,18.20
2010,07,08,01,59,18.20
2010,07,08,02,00,18.20
2010,07,08,02,01,18.20
2010,07,08,02,02,18.20
2010,07,08,02,03,18.20
2010,07,08,02,04,18.20
2010,07,08,02,05,18.10
2010,07,08,02,06,18.10
2010,07,08,02,07,18.10
2010,07,08,02,08,18.10
2010,07,08,02,09,18.10
2010,07,08,02,10,18.10
2010,07,08,02,11,18.10
2010,07,08,02,12,18.10
2010,07,08,02,13,18.00
2010,07,08,02,14,17.90
2010,07,08,02,15,17.90
2010,07,08,02,16,17.90
2010,07,08,02,17,17.90
2010,07,08,02,18,17.90
2010,07,08,02,19,17.90
2010,07,08,02,20,17.90
2010,07,08,02,21,17.80
2010,07,08,02,22,17.80
2010,07,08,02,23,17.80
2010,07,08,02,24,17.80
2010,07,08,02,25,17.80
2010,07,08,02,26,17.80
2010,07,08,02,27,17.80
2010,07,08,02,28,17.80
2010,07,08,02,29,17.70
2010,07,08,02,30,17.70
2010,07,08,02,31,17.70
2010,07,08,02,32,17.70
2010,07,08,02,33,17.70
2010,07,08,02,34,17.70
2010,07,08,02,35,17.70
2010,07,08,02,36,17.70
2010,07,08,02,37,17.60
2010,07,08,02,38,17.60
2010,07,08,02,39,17.60
2010,07,08,02,40,17.60
2010,07,08,02,41,17.50
2010,07,08,02,42,17.50
2010,07,08,02,43,17.50
2010,07,08,02,44,17.50
2010,07,08,02,45,17.40
2010,07,08,02,46,17.40
2010,07,08,02,47,17.40
2010,07,08,02,48,17.40
2010,07,08,02,49,17.40
2010,07,08,02,50,17.40
2010,07,08,02,51,17.40
2010,07,08,02,52,17.40
2010,07,08,02,53,17.40
2010,07,08,02,54,17.40
2010,07,08,02,55,17.40
2010,07,08,02,56,17.40
2010,07,08,02,57,17.40
2010,07,08,02,58,17.40
2010,07,08,02,59,17.40
2010,07,08,03,00,17.40
2010,07,08,03,01,17.30
2010,07,08,03,02,17.30
2010,07,08,03,03,17.30
2010,07,08,03,04,17.30
2010,07,08,03,05,17.30
2010,07,08,03,06,17.30
2010,07,08,03,07,17.30
2010,07,08,03,08,17.30
2010,07,08,03,09,17.30
2010,07,08,03,10,17.30
2010,07,08,03,11,17.30
2010,07,08,03,12,17.30
2010,07,08,03,13,17.30
2010,07,08,03,14,17.30
2010,07,08,03,15,17.30
2010,07,08,03,16,17.30
2010,07,08,03,17,17.30
2010,07,08,03,18,17.30
2010,07,08,03,19,17.30
2010,07,08,03,20,17.30
2010,07,08,03,21,17.30
2010,07,08,03,22,17.30
2010,07,08,03,23,17.30
2010,07,08,03,24,17.30
2010,07,08,03,25,17.30
2010,07,08,03,26,17.30
2010,07,08,03,27,17.30
2010,07,08,03,28,17.30
2010,07,08,03,29,17.30
2010,07,08,03,30,17.30
2010,07,08,03,31,17.30
2010,07,08,03,32,17.30
2010,07,08,03,33,17.30
2010,07,08,03,34,17.30
2010,07,08,03,35,17.30
2010,07,08,03,36,17.30
2010,07,08,03,37,17.30
2010,07,08,03,38,17.30
2010,07,08,03,39,17.30
2010,07,08,03,40,17.30
2010,07,08,03,41,17.30
2010,07,08,03,42,17.30
2010,07,08,03,43,17.30
2010,07,08,03,44,17.30
2010,07,08,03,45,17.30
2010,07,08,03,46,17.30
2010,07,08,03,47,17.20
2010,07,08,03,48,17.20
2010,07,08,03,49,17.20
2010,07,08,03,50,17.20
2010,07,08,03,51,17.20
2010,07,08,03,52,17.20
2010,07,08,03,53,17.20
2010,07,08,03,54,17.20
2010,07,08,03,55,17.20
2010,07,08,03,56,17.20
2010,07,08,03,57,17.20
2010,07,08,03,58,17.20
2010,07,08,03,59,17.20
2010,07,08,04,00,17.20
2010,07,08,04,01,17.20
2010,07,08,04,02,17.20
2010,07,08,04,03,17.20
2010,07,08,04,04,17.20
2010,07,08,04,05,17.20
2010,07,08,04,06,17.20
2010,07,08,04,07,17.20
2010,07,08,04,08,17.20
2010,07,08,04,09,17.20
2010,07,08,04,10,17.20
2010,07,08,04,11,17.20
2010,07,08,04,12,17.20
2010,07,08,04,13,17.20
2010,07,08,04,14,17.20
2010,07,08,04,15,17.20
2010,07,08,04,16,17.20
2010,07,08,04,17,17.20
2010,07,08,04,18,17.20
2010,07,08,04,19,17.20
2010,07,08,04,20,17.20
2010,07,08,04,21,17.20
2010,07,08,04,22,17.20
2010,07,08,04,23,17.20
2010,07,08,04,24,17.20
2010,07,08,04,25,17.20
2010,07,08,04,26,17.20
2010,07,08,04,27,17.20
2010,07,08,04,28,17.20
2010,07,08,04,29,17.20
2010,07,08,04,30,17.20
2010,07,08,04,31,17.30
2010,07,08,04,32,17.30
2010,07,08,04,33,17.30
2010,07,08,04,34,17.30
2010,07,08,04,35,17.30
2010,07,08,04,36,17.30
2010,07,08,04,37,17.30
2010,07,08,04,38,17.30
2010,07,08,04,39,17.30
2010,07,08,04,40,17.30
2010,07,08,04,41,17.30
2010,07,08,04,42,17.30
2010,07,08,04,43,17.30
2010,07,08,04,44,17.30
2010,07,08,04,45,17.30
2010,07,08,04,46,17.30
2010,07,08,04,47,17.30
2010,07,08,04,48,17.30
2010,07,08,04,49,17.30
2010,07,08,04,50,17.30
2010,07,08,04,51,17.30
2010,07,08,04,52,17.30
2010,07,08,04,53,17.30
2010,07,08,04,54,17.30
2010,07,08,04,55,17.30
2010,07,08,04,56,17.30
2010,07,08,04,57,17.30
2010,07,08,04,58,17.30
2010,07,08,04,59,17.30
2010,07,08,05,00,17.30
2010,07,08,05,01,17.30
2010,07,08,05,02,17.30
2010,07,08,05,03,17.30
2010,07,08,05,04,17.30
2010,07,08,05,05,17.30
2010,07,08,05,06,17.30
2010,07,08,05,07,17.30
2010,07,08,05,08,17.30
2010,07,08,05,09,17.30
2010,07,08,05,10,17.30
2010,07,08,05,11,17.30
2010,07,08,05,12,17.30
2010,07,08,05,13,17.30
2010,07,08,05,14,17.30
2010,07,08,05,15,17.30
2010,07,08,05,16,17.30
2010,07,08,05,17,17.30
2010,07,08,05,18,17.30
2010,07,08,05,19,17.30
2010,07,08,05,20,17.40
2010,07,08,05,21,17.40
2010,07,08,05,22,17.40
2010,07,08,05,23,17.40
2010,07,08,05,24,17.40
2010,07,08,05,25,17.40
2010,07,08,05,26,17.30
2010,07,08,05,27,17.30
2010,07,08,05,28,17.30
2010,07,08,05,29,17.30
2010,07,08,05,30,17.30
2010,07,08,05,31,17.30
2010,07,08,05,32,17.30
2010,07,08,05,33,17.30
2010,07,08,05,34,17.30
2010,07,08,05,35,17.30
2010,07,08,05,36,17.30
2010,07,08,05,37,17.30
2010,07,08,05,38,17.30
2010,07,08,05,39,17.30
2010,07,08,05,40,17.30
2010,07,08,05,41,17.30
2010,07,08,05,42,17.30
2010,07,08,05,43,17.30
2010,07,08,05,44,17.30
2010,07,08,05,45,17.30
2010,07,08,05,46,17.30
2010,07,08,05,47,17.30
2010,07,08,05,48,17.30
2010,07,08,05,49,17.30
2010,07,08,05,50,17.30
2010,07,08,05,51,17.30
2010,07,08,05,52,17.20
2010,07,08,05,53,17.20
2010,07,08,05,54,17.20
2010,07,08,05,55,17.20
2010,07,08,05,56,17.20
2010,07,08,05,57,17.20
2010,07,08,05,58,17.20
2010,07,08,05,59,17.20
2010,07,08,06,00,17.20
2010,07,08,06,01,17.10
2010,07,08,06,02,17.10
2010,07,08,06,03,17.10
2010,07,08,06,04,17.10
2010,07,08,06,05,17.10
2010,07,08,06,06,17.10
2010,07,08,06,07,17.10
2010,07,08,06,08,17.10
2010,07,08,06,09,17.10
2010,07,08,06,10,17.10
2010,07,08,06,11,17.20
2010,07,08,06,12,17.20
2010,07,08,06,13,17.20
2010,07,08,06,14,17.20
2010,07,08,06,15,17.20
2010,07,08,06,16,17.20
2010,07,08,06,17,17.30
2010,07,08,06,18,17.30
2010,07,08,06,19,17.30
2010,07,08,06,20,17.30
2010,07,08,06,21,17.30
2010,07,08,06,22,17.30
2010,07,08,06,23,17.30
2010,07,08,06,24,17.40
2010,07,08,06,25,17.40
2010,07,08,06,26,17.40
2010,07,08,06,27,17.50
2010,07,08,06,28,17.50
2010,07,08,06,29,17.50
2010,07,08,06,30,17.50
2010,07,08,06,31,17.60
2010,07,08,06,32,17.60
2010,07,08,06,33,17.60
2010,07,08,06,34,17.60
2010,07,08,06,35,17.60
2010,07,08,06,36,17.70
2010,07,08,06,37,17.70
2010,07,08,06,38,17.70
2010,07,08,06,39,17.70
2010,07,08,06,40,17.70
2010,07,08,06,41,17.70
2010,07,08,06,42,17.70
2010,07,08,06,43,17.70
2010,07,08,06,44,17.80
2010,07,08,06,45,17.80
2010,07,08,06,46,17.80
2010,07,08,06,47,17.80
2010,07,08,06,48,17.80
2010,07,08,06,49,17.90
2010,07,08,06,50,17.90
2010,07,08,06,51,17.90
2010,07,08,06,52,17.90
2010,07,08,06,53,17.90
2010,07,08,06,54,17.90
2010,07,08,06,55,17.90
2010,07,08,06,56,18.00
2010,07,08,06,57,18.10
2010,07,08,06,58,18.10
2010,07,08,06,59,18.10
2010,07,08,07,00,18.20
2010,07,08,07,01,18.20
2010,07,08,07,02,18.20
2010,07,08,07,03,18.20
2010,07,08,07,04,18.30
2010,07,08,07,05,18.30
2010,07,08,07,06,18.40
2010,07,08,07,07,18.40
2010,07,08,07,08,18.40
2010,07,08,07,09,18.50
2010,07,08,07,10,18.50
2010,07,08,07,11,18.60
2010,07,08,07,12,18.60
2010,07,08,07,13,18.70
2010,07,08,07,14,18.70
2010,07,08,07,15,18.80
2010,07,08,07,16,18.90
2010,07,08,07,17,18.90
2010,07,08,07,18,18.90
2010,07,08,07,19,18.90
2010,07,08,07,20,19.00
2010,07,08,07,21,19.10
2010,07,08,07,22,19.10
2010,07,08,07,23,19.10
2010,07,08,07,24,19.10
2010,07,08,07,25,19.20
2010,07,08,07,26,19.20
2010,07,08,07,27,19.20
2010,07,08,07,28,19.30
2010,07,08,07,29,19.30
2010,07,08,07,30,19.30
2010,07,08,07,31,19.40
2010,07,08,07,32,19.40
2010,07,08,07,33,19.40
2010,07,08,07,34,19.40
2010,07,08,07,35,19.50
2010,07,08,07,36,19.50
2010,07,08,07,37,19.50
2010,07,08,07,38,19.50
2010,07,08,07,39,19.60
2010,07,08,07,40,19.60
2010,07,08,07,41,19.60
2010,07,08,07,42,19.70
2010,07,08,07,43,19.70
2010,07,08,07,44,19.80
2010,07,08,07,45,19.80
2010,07,08,07,46,19.80
2010,07,08,07,47,19.90
2010,07,08,07,48,19.90
2010,07,08,07,49,19.90
2010,07,08,07,50,19.90
2010,07,08,07,51,20.00
2010,07,08,07,52,20.10
2010,07,08,07,53,20.10
2010,07,08,07,54,20.10
2010,07,08,07,55,20.10
2010,07,08,07,56,20.20
2010,07,08,07,57,20.20
2010,07,08,07,58,20.20
2010,07,08,07,59,20.30
2010,07,08,08,00,20.30
2010,07,08,08,01,20.40
2010,07,08,08,02,20.40
2010,07,08,08,03,20.50
2010,07,08,08,04,20.60
2010,07,08,08,05,20.70
2010,07,08,08,06,20.70
2010,07,08,08,07,20.80
2010,07,08,08,08,20.80
2010,07,08,08,09,20.90
2010,07,08,08,10,21.00
2010,07,08,08,11,21.00
2010,07,08,08,12,21.00
2010,07,08,08,13,21.10
2010,07,08,08,14,21.20
2010,07,08,08,15,21.30
2010,07,08,08,16,21.30
2010,07,08,08,17,21.40
2010,07,08,08,18,21.50
2010,07,08,08,19,21.60
2010,07,08,08,20,21.60
2010,07,08,08,21,21.60
2010,07,08,08,22,21.70
2010,07,08,08,23,21.80
2010,07,08,08,24,21.90
2010,07,08,08,25,21.90
2010,07,08,08,26,22.00
2010,07,08,08,27,22.10
2010,07,08,08,28,22.20
2010,07,08,08,29,22.20
2010,07,08,08,30,22.20
2010,07,08,08,31,22.30
2010,07,08,08,32,22.40
2010,07,08,08,33,22.40
2010,07,08,08,34,22.50
2010,07,08,08,35,22.60
2010,07,08,08,36,22.70
2010,07,08,08,37,22.80
2010,07,08,08,38,22.90
2010,07,08,08,39,23.00
2010,07,08,08,40,23.10
2010,07,08,08,41,23.20
2010,07,08,08,42,23.30
2010,07,08,08,43,23.40
2010,07,08,08,44,23.40
2010,07,08,08,45,23.60
2010,07,08,08,46,23.70
2010,07,08,08,47,23.70
2010,07,08,08,48,23.80
2010,07,08,08,49,23.90
2010,07,08,08,50,24.00
2010,07,08,08,51,24.10
2010,07,08,08,52,24.20
2010,07,08,08,53,24.30
2010,07,08,08,54,24.40
2010,07,08,08,55,24.50
2010,07,08,08,56,24.60
2010,07,08,08,57,24.70
2010,07,08,08,58,24.90
2010,07,08,08,59,24.90
2010,07,08,09,00,25.10
2010,07,08,09,01,25.20
2010,07,08,09,02,25.30
2010,07,08,09,03,25.40
2010,07,08,09,04,25.50
2010,07,08,09,05,25.60
2010,07,08,09,06,25.70
2010,07,08,09,07,25.70
2010,07,08,09,08,25.80
2010,07,08,09,09,25.80
2010,07,08,09,10,25.90
2010,07,08,09,11,25.90
2010,07,08,09,12,26.00
2010,07,08,09,13,26.10
2010,07,08,09,14,26.10
2010,07,08,09,15,26.20
2010,07,08,09,16,26.20
2010,07,08,09,17,26.20
2010,07,08,09,18,26.20
2010,07,08,09,19,26.20
2010,07,08,09,20,26.20
2010,07,08,09,21,26.20
2010,07,08,09,22,26.10
2010,07,08,09,23,26.10
2010,07,08,09,24,26.00
2010,07,08,09,25,25.90
2010,07,08,09,26,25.90
2010,07,08,09,27,25.90
2010,07,08,09,28,25.80
2010,07,08,09,29,25.80
2010,07,08,09,30,25.80
2010,07,08,09,31,25.80
2010,07,08,09,32,25.80
2010,07,08,09,33,25.80
2010,07,08,09,34,25.90
2010,07,08,09,35,25.90
2010,07,08,09,36,26.00
2010,07,08,09,37,26.00
2010,07,08,09,38,26.00
2010,07,08,09,39,26.10
2010,07,08,09,40,26.10
2010,07,08,09,41,26.10
2010,07,08,09,42,26.20
2010,07,08,09,43,26.20
2010,07,08,09,44,26.20
2010,07,08,09,45,26.20
2010,07,08,09,46,26.20
2010,07,08,09,47,26.30
2010,07,08,09,48,26.40
2010,07,08,09,49,26.40
2010,07,08,09,50,26.60
2010,07,08,09,51,26.60
2010,07,08,09,52,26.60
2010,07,08,09,53,26.60
2010,07,08,09,54,26.60
2010,07,08,09,55,26.60
2010,07,08,09,56,26.70
2010,07,08,09,57,26.80
2010,07,08,09,58,26.80
2010,07,08,09,59,26.80
2010,07,08,10,00,26.80
2010,07,08,10,01,26.70
2010,07,08,10,02,26.60
2010,07,08,10,03,26.50
2010,07,08,10,04,26.40
2010,07,08,10,05,26.20
2010,07,08,10,06,26.00
2010,07,08,10,07,26.00
2010,07,08,10,08,26.00
2010,07,08,10,09,26.10
2010,07,08,10,10,26.10
2010,07,08,10,11,26.20
2010,07,08,10,12,26.30
2010,07,08,10,13,26.40
2010,07,08,10,14,26.50
2010,07,08,10,15,26.60
2010,07,08,10,16,26.60
2010,07,08,10,17,26.60
2010,07,08,10,18,26.60
2010,07,08,10,19,26.60
2010,07,08,10,20,26.60
2010,07,08,10,21,26.60
2010,07,08,10,22,26.60
2010,07,08,10,23,26.60
2010,07,08,10,24,26.70
2010,07,08,10,25,26.70
2010,07,08,10,26,26.80
2010,07,08,10,27,26.90
2010,07,08,10,28,26.90
2010,07,08,10,29,26.90
2010,07,08,10,30,27.00
2010,07,08,10,31,27.10
2010,07,08,10,32,27.00
2010,07,08,10,33,26.90
2010,07,08,10,34,26.90
2010,07,08,10,35,26.90
2010,07,08,10,36,26.90
2010,07,08,10,37,26.80
2010,07,08,10,38,26.70
2010,07,08,10,39,26.70
2010,07,08,10,40,26.70
2010,07,08,10,41,26.70
2010,07,08,10,42,26.70
2010,07,08,10,43,26.70
2010,07,08,10,44,26.80
2010,07,08,10,45,27.00
2010,07,08,10,46,27.20
2010,07,08,10,47,27.30
2010,07,08,10,48,27.30
2010,07,08,10,49,27.30
2010,07,08,10,50,27.30
2010,07,08,10,51,27.50
2010,07,08,10,52,27.60
2010,07,08,10,53,27.70
2010,07,08,10,54,27.80
2010,07,08,10,55,28.00
2010,07,08,10,56,28.00
2010,07,08,10,57,28.00
2010,07,08,10,58,28.00
2010,07,08,10,59,28.00
2010,07,08,11,00,28.00
2010,07,08,11,01,28.00
2010,07,08,11,02,28.00
2010,07,08,11,03,28.20
2010,07,08,11,04,28.20
2010,07,08,11,05,28.20
2010,07,08,11,06,28.20
2010,07,08,11,07,28.20
2010,07,08,11,08,28.20
2010,07,08,11,09,28.20
2010,07,08,11,10,28.20
2010,07,08,11,11,28.20
2010,07,08,11,12,28.30
2010,07,08,11,13,28.40
2010,07,08,11,14,28.40
2010,07,08,11,15,28.40
2010,07,08,11,16,28.40
2010,07,08,11,17,28.40
2010,07,08,11,18,28.60
2010,07,08,11,19,28.70
2010,07,08,11,20,28.90
2010,07,08,11,21,29.00
2010,07,08,11,22,29.20
2010,07,08,11,23,29.30
2010,07,08,11,24,29.30
2010,07,08,11,25,29.20
2010,07,08,11,26,29.20
2010,07,08,11,27,29.20
2010,07,08,11,28,29.20
2010,07,08,11,29,29.20
2010,07,08,11,30,29.00
2010,07,08,11,31,28.90
2010,07,08,11,32,28.90
2010,07,08,11,33,28.90
2010,07,08,11,34,29.10
2010,07,08,11,35,29.00
2010,07,08,11,36,28.90
2010,07,08,11,37,28.90
2010,07,08,11,38,28.60
2010,07,08,11,39,28.50
2010,07,08,11,40,28.40
2010,07,08,11,41,28.40
2010,07,08,11,42,28.30
2010,07,08,11,43,28.30
2010,07,08,11,44,28.30
2010,07,08,11,45,28.20
2010,07,08,11,46,28.30
2010,07,08,11,47,28.30
2010,07,08,11,48,28.40
2010,07,08,11,49,28.40
2010,07,08,11,50,28.40
2010,07,08,11,51,28.40
2010,07,08,11,52,28.40
2010,07,08,11,53,28.30
2010,07,08,11,54,28.20
2010,07,08,11,55,28.10
2010,07,08,11,56,28.00
2010,07,08,11,57,28.00
2010,07,08,11,58,27.90
2010,07,08,11,59,27.80
2010,07,08,12,00,27.80
2010,07,08,12,01,27.90
2010,07,08,12,02,28.00
2010,07,08,12,03,28.00
2010,07,08,12,04,28.00
2010,07,08,12,05,28.00
2010,07,08,12,06,28.00
2010,07,08,12,07,28.00
2010,07,08,12,08,28.00
2010,07,08,12,09,28.00
2010,07,08,12,10,27.90
2010,07,08,12,11,27.90
2010,07,08,12,12,27.90
2010,07,08,12,13,27.90
2010,07,08,12,14,27.80
2010,07,08,12,15,27.70
2010,07,08,12,16,27.60
2010,07,08,12,17,27.60
2010,07,08,12,18,27.50
2010,07,08,12,19,27.40
2010,07,08,12,20,27.30
2010,07,08,12,21,27.30
2010,07,08,12,22,27.30
2010,07,08,12,23,27.20
2010,07,08,12,24,27.20
2010,07,08,12,25,27.20
2010,07,08,12,26,27.30
2010,07,08,12,27,27.30
2010,07,08,12,28,27.30
2010,07,08,12,29,27.20
2010,07,08,12,30,27.10
2010,07,08,12,31,27.00
2010,07,08,12,32,26.90
2010,07,08,12,33,26.80
2010,07,08,12,34,26.70
2010,07,08,12,35,26.60
2010,07,08,12,36,26.60
2010,07,08,12,37,26.60
2010,07,08,12,38,26.60
2010,07,08,12,39,26.60
2010,07,08,12,40,26.60
2010,07,08,12,41,26.60
2010,07,08,12,42,26.70
2010,07,08,12,43,26.60
2010,07,08,12,44,26.70
2010,07,08,12,45,26.70
2010,07,08,12,46,26.80
2010,07,08,12,47,26.80
2010,07,08,12,48,26.90
2010,07,08,12,49,27.00
2010,07,08,12,50,27.10
2010,07,08,12,51,27.10
2010,07,08,12,52,27.10
2010,07,08,12,53,27.10
2010,07,08,12,54,27.00
2010,07,08,12,55,26.90
2010,07,08,12,56,26.90
2010,07,08,12,57,26.90
2010,07,08,12,58,26.90
2010,07,08,12,59,26.90
2010,07,08,13,00,27.10
2010,07,08,13,01,27.10
2010,07,08,13,02,27.10
2010,07,08,13,03,27.20
2010,07,08,13,04,27.20
2010,07,08,13,05,27.30
2010,07,08,13,06,27.30
2010,07,08,13,07,27.30
2010,07,08,13,08,27.40
2010,07,08,13,09,27.40
2010,07,08,13,10,27.50
2010,07,08,13,11,27.60
2010,07,08,13,12,27.70
2010,07,08,13,13,27.80
2010,07,08,13,14,28.10
2010,07,08,13,15,28.30
2010,07,08,13,16,28.40
2010,07,08,13,17,28.40
2010,07,08,13,18,28.40
2010,07,08,13,19,28.40
2010,07,08,13,20,28.40
2010,07,08,13,21,28.40
2010,07,08,13,22,28.40
2010,07,08,13,23,28.40
2010,07,08,13,24,28.40
2010,07,08,13,25,28.40
2010,07,08,13,26,28.40
2010,07,08,13,27,28.40
2010,07,08,13,28,28.60
2010,07,08,13,29,28.70
2010,07,08,13,30,28.80
2010,07,08,13,31,28.90
2010,07,08,13,32,29.00
2010,07,08,13,33,29.20
2010,07,08,13,34,29.20
2010,07,08,13,35,29.10
2010,07,08,13,36,28.90
2010,07,08,13,37,28.90
2010,07,08,13,38,28.80
2010,07,08,13,39,28.80
2010,07,08,13,40,28.80
2010,07,08,13,41,28.90
2010,07,08,13,42,28.90
2010,07,08,13,43,29.00
2010,07,08,13,44,29.10
2010,07,08,13,45,29.20
2010,07,08,13,46,29.20
2010,07,08,13,47,29.20
2010,07,08,13,48,29.00
2010,07,08,13,49,28.90
2010,07,08,13,50,28.90
2010,07,08,13,51,28.90
2010,07,08,13,52,28.90
2010,07,08,13,53,28.90
2010,07,08,13,54,29.00
2010,07,08,13,55,29.20
2010,07,08,13,56,29.40
2010,07,08,13,57,29.50
2010,07,08,13,58,29.60
2010,07,08,13,59,29.80
2010,07,08,14,00,29.80
2010,07,08,14,01,29.80
2010,07,08,14,02,29.70
2010,07,08,14,03,29.60
2010,07,08,14,04,29.50
2010,07,08,14,05,29.40
2010,07,08,14,06,29.40
2010,07,08,14,07,29.40
2010,07,08,14,08,29.60
2010,07,08,14,09,29.70
2010,07,08,14,10,29.80
2010,07,08,14,11,29.90
2010,07,08,14,12,29.90
2010,07,08,14,13,29.90
2010,07,08,14,14,29.90
2010,07,08,14,15,29.90
2010,07,08,14,16,29.90
2010,07,08,14,17,29.80
2010,07,08,14,18,29.60
2010,07,08,14,19,29.50
2010,07,08,14,20,29.30
2010,07,08,14,21,29.30
2010,07,08,14,22,29.20
2010,07,08,14,23,29.20
2010,07,08,14,24,29.10
2010,07,08,14,25,29.10
2010,07,08,14,26,29.10
2010,07,08,14,27,29.10
2010,07,08,14,28,29.00
2010,07,08,14,29,28.90
2010,07,08,14,30,28.90
2010,07,08,14,31,28.90
2010,07,08,14,32,28.90
2010,07,08,14,33,28.90
2010,07,08,14,34,28.90
2010,07,08,14,35,28.90
2010,07,08,14,36,28.90
2010,07,08,14,37,28.90
2010,07,08,14,38,28.90
2010,07,08,14,39,29.00
2010,07,08,14,40,29.10
2010,07,08,14,41,29.10
2010,07,08,14,42,29.20
2010,07,08,14,43,29.30
2010,07,08,14,44,29.50
2010,07,08,14,45,29.60
2010,07,08,14,46,29.80
2010,07,08,14,47,29.90
2010,07,08,14,48,30.10
2010,07,08,14,49,30.20
2010,07,08,14,50,30.30
2010,07,08,14,51,30.30
2010,07,08,14,52,30.30
2010,07,08,14,53,30.40
2010,07,08,14,54,30.40
2010,07,08,14,55,30.40
2010,07,08,14,56,30.60
2010,07,08,14,57,30.70
2010,07,08,14,58,30.80
2010,07,08,14,59,30.80
2010,07,08,15,00,30.80
2010,07,08,15,01,30.60
2010,07,08,15,02,30.40
2010,07,08,15,03,30.30
2010,07,08,15,04,30.30
2010,07,08,15,05,30.20
2010,07,08,15,06,30.30
2010,07,08,15,07,30.30
2010,07,08,15,08,30.30
2010,07,08,15,09,30.40
2010,07,08,15,10,30.60
2010,07,08,15,11,30.70
2010,07,08,15,12,30.80
2010,07,08,15,13,31.00
2010,07,08,15,14,31.10
2010,07,08,15,15,31.20
2010,07,08,15,16,31.30
2010,07,08,15,17,31.30
2010,07,08,15,18,31.40
2010,07,08,15,19,31.40
2010,07,08,15,20,31.40
2010,07,08,15,21,31.40
2010,07,08,15,22,31.40
2010,07,08,15,23,31.40
2010,07,08,15,24,31.50
2010,07,08,15,25,31.60
2010,07,08,15,26,31.70
2010,07,08,15,27,31.60
2010,07,08,15,28,31.60
2010,07,08,15,29,31.60
2010,07,08,15,30,31.60
2010,07,08,15,31,31.60
2010,07,08,15,32,31.50
2010,07,08,15,33,31.30
2010,07,08,15,34,31.10
2010,07,08,15,35,30.90
2010,07,08,15,36,30.70
2010,07,08,15,37,30.50
2010,07,08,15,38,30.40
2010,07,08,15,39,30.30
2010,07,08,15,40,30.20
2010,07,08,15,41,30.20
2010,07,08,15,42,30.10
2010,07,08,15,43,30.10
2010,07,08,15,44,30.10
2010,07,08,15,45,30.10
2010,07,08,15,46,30.20
2010,07,08,15,47,30.20
2010,07,08,15,48,30.30
2010,07,08,15,49,30.30
2010,07,08,15,50,30.30
2010,07,08,15,51,30.50
2010,07,08,15,52,30.70
2010,07,08,15,53,30.90
2010,07,08,15,54,31.00
2010,07,08,15,55,31.20
2010,07,08,15,56,31.20
2010,07,08,15,57,31.20
2010,07,08,15,58,31.20
2010,07,08,15,59,31.20
2010,07,08,16,00,31.10
2010,07,08,16,01,31.00
2010,07,08,16,02,31.00
2010,07,08,16,03,31.10
2010,07,08,16,04,31.10
2010,07,08,16,05,31.10
2010,07,08,16,06,31.10
2010,07,08,16,07,31.10
2010,07,08,16,08,31.10
2010,07,08,16,09,31.10
2010,07,08,16,10,31.00
2010,07,08,16,11,31.00
2010,07,08,16,12,31.00
2010,07,08,16,13,31.00
2010,07,08,16,14,31.00
2010,07,08,16,15,31.00
2010,07,08,16,16,31.20
2010,07,08,16,17,31.30
2010,07,08,16,18,31.40
2010,07,08,16,19,31.40
2010,07,08,16,20,31.40
2010,07,08,16,21,31.50
2010,07,08,16,22,31.60
2010,07,08,16,23,31.70
2010,07,08,16,24,31.60
2010,07,08,16,25,31.60
2010,07,08,16,26,31.40
2010,07,08,16,27,31.30
2010,07,08,16,28,31.20
2010,07,08,16,29,31.10
2010,07,08,16,30,31.20
2010,07,08,16,31,31.40
2010,07,08,16,32,31.50
2010,07,08,16,33,31.80
2010,07,08,16,34,31.90
2010,07,08,16,35,32.00
2010,07,08,16,36,32.10
2010,07,08,16,37,32.10
2010,07,08,16,38,32.00
2010,07,08,16,39,31.90
2010,07,08,16,40,31.90
2010,07,08,16,41,31.80
2010,07,08,16,42,31.70
2010,07,08,16,43,31.60
2010,07,08,16,44,31.50
2010,07,08,16,45,31.30
2010,07,08,16,46,31.20
2010,07,08,16,47,31.10
2010,07,08,16,48,31.00
2010,07,08,16,49,30.90
2010,07,08,16,50,30.90
2010,07,08,16,51,30.90
2010,07,08,16,52,30.90
2010,07,08,16,53,30.80
2010,07,08,16,54,30.80
2010,07,08,16,55,30.80
2010,07,08,16,56,30.70
2010,07,08,16,57,30.70
2010,07,08,16,58,30.70
2010,07,08,16,59,30.60
2010,07,08,17,00,30.60
2010,07,08,17,01,30.70
2010,07,08,17,02,30.70
2010,07,08,17,03,30.70
2010,07,08,17,04,30.60
2010,07,08,17,05,30.50
2010,07,08,17,06,30.40
2010,07,08,17,07,30.40
2010,07,08,17,08,30.30
2010,07,08,17,09,30.40
2010,07,08,17,10,30.60
2010,07,08,17,11,30.70
2010,07,08,17,12,30.70
2010,07,08,17,13,30.80
2010,07,08,17,14,30.80
2010,07,08,17,15,30.80
2010,07,08,17,16,30.80
2010,07,08,17,17,30.70
2010,07,08,17,18,30.70
2010,07,08,17,19,30.60
2010,07,08,17,20,30.60
2010,07,08,17,21,30.50